Zurück zum Katalog

SL-16 DEB

AktivLEO
NORAD 39722·DEBRIS·🇷🇺 Russia

Gestartet Dec 25, 1992 von Baikonur Cosmodrome

Loading…

Nächste Überflüge (nächste 24 Stunden)

TLE

AktuellSource: Space-Track

Epoche: Sep 14, 2026, 13:34 UTC

1 39722U 92093KN  26257.56553631  .00000254  00000-0  18734-3 0  9999
2 39722  70.8937 191.6301 0102041 134.9754  38.5798 14.02169815634179

Verfolge SL-16 DEB in Echtzeit mit AllMySat

Download on the App Store